Weather History for Jennings, LA

Change the Weather History Date:

Wednesday, August 1, 2012

  Actual Average (KLCH) Record (KLCH)
Temperature  
Mean Temperature 84 °F 83 °F  
Max Temperature 92 °F 92 °F 99 °F (2010)
Min Temperature 76 °F 75 °F 67 °F (1936)
Degree Days  
Heating Degree Days 0 0  
Month to date heating degree days 0  
Since 1 June heating degree days 0  
Since 1 July heating degree days 0  
Cooling Degree Days 18 18  
Month to date cooling degree days 18  
Year to date cooling degree days 1589  
Since 1 June cooling degree days 1051  
Growing Degree Days 34 (Base 50)    
Moisture  
Dew Point 76 °F    
Average Humidity 79    
Maximum Humidity 99    
Minimum Humidity 53    
Precipitation  
Precipitation 0.00 in 0.17 in 3.17 in (1995)
Month to date precipitation 0.17  
Year to date precipitation 33.53  
Snow  
Snow - 0.00 in 0.00 in ()
Month to date snowfall 0.0  
Since 1 June snowfall 0.0  
Since 1 July snowfall 0.0  
Snow Depth -    
Sea Level Pressure  
Sea Level Pressure 29.96 in    
Wind  
Wind Speed 3 mph ()    
Max Wind Speed 13 mph    
Max Gust Speed 17 mph    
Visibility 9.5 miles    
Events      
T = Trace of Precipitation, MM = Missing Value Source: Averaged Metar Reports

Daily Weather History Graph

Daily Weather History Graph

Search for Another Location

Airport:

Trip Planner

Search our weather history database for the weather conditions in past years. The results will help you decide how hot, cold, wet, or windy it might be!

Date:

Astronomy

Aug. 01, 2012 Rise Set
Actual Time 6:29 AM CDT 8:03 PM CDT
Civil Twilight 6:03 AM CDT 8:29 PM CDT
Nautical Twilight 5:32 AM CDT 9:00 PM CDT
Astronomical Twilight 4:59 AM CDT 9:33 PM CDT
Moon 7:39 PM CDT (8/1) 5:57 AM CDT (8/1)
Length of Visible Light 14h 26m
Length of Day
13h 34m
Full, 100% of the Moon is Illuminated
Aug 1
Full
Aug 1
Full
Aug 9
Last Quarter
Aug 17
New
Aug 24
First Quarter

Hourly Weather History & Observations

Time (CDT) Temp. Heat Index Dew Point Humidity Pressure Visibility Wind Dir Wind Speed Gust Speed Precip Events Conditions
12:35 AM 79.0 °F - 76.6 °F 92% 29.97 in 10.0 mi Calm Calm - N/A   Clear
12:55 AM 78.8 °F - 76.6 °F 93% 29.97 in 10.0 mi SSW 3.5 mph - N/A   Clear
1:15 AM 78.8 °F - 76.5 °F 92% 29.97 in 10.0 mi Calm Calm - N/A   Clear
1:35 AM 78.4 °F - 76.5 °F 94% 29.96 in 10.0 mi SW 3.5 mph - N/A   Clear
1:55 AM 77.9 °F - 76.5 °F 95% 29.96 in 10.0 mi Calm Calm - N/A   Clear
2:15 AM 78.3 °F - 76.5 °F 94% 29.95 in 10.0 mi Calm Calm - N/A   Clear
2:35 AM 78.3 °F - 76.5 °F 94% 29.95 in 10.0 mi South 3.5 mph - N/A   Clear
2:55 AM 77.5 °F - 76.3 °F 96% 29.95 in 10.0 mi Calm Calm - N/A   Clear
3:15 AM 77.5 °F - 76.3 °F 96% 29.96 in 10.0 mi Calm Calm - N/A   Clear
3:35 AM 77.2 °F - 76.3 °F 97% 29.96 in 10.0 mi Calm Calm - N/A   Clear
3:55 AM 77.0 °F - 76.1 °F 97% 29.96 in 10.0 mi SSW 3.5 mph - N/A   Clear
4:15 AM 76.6 °F - 76.1 °F 98% 29.96 in 10.0 mi Calm Calm - N/A   Clear
4:35 AM 76.5 °F - 76.1 °F 99% 29.96 in 10.0 mi Calm Calm - N/A   Clear
4:55 AM 76.5 °F - 76.1 °F 99% 29.96 in 7.0 mi Calm Calm - N/A   Clear
5:15 AM 77.0 °F - 76.3 °F 98% 29.96 in 10.0 mi Calm Calm - N/A   Clear
5:35 AM 76.5 °F - 76.1 °F 99% 29.97 in 7.0 mi Calm Calm - N/A   Scattered Clouds
5:55 AM 76.6 °F - 76.1 °F 98% 29.97 in 7.0 mi Calm Calm - N/A   Scattered Clouds
6:15 AM 76.5 °F - 75.9 °F 98% 29.98 in 7.0 mi Calm Calm - N/A   Clear
6:35 AM 76.6 °F - 76.1 °F 98% 29.98 in 7.0 mi Calm Calm - N/A   Clear
6:55 AM 76.5 °F - 75.9 °F 98% 29.99 in 7.0 mi Calm Calm - N/A   Clear
7:15 AM 77.0 °F - 76.5 °F 98% 29.99 in 7.0 mi Calm Calm - N/A   Clear
7:35 AM 77.5 °F - 77.0 °F 98% 29.99 in 7.0 mi Calm Calm - N/A   Clear
7:55 AM 78.1 °F - 77.4 °F 98% 29.99 in 7.0 mi West 3.5 mph - N/A   Clear
8:15 AM 78.8 °F - 77.9 °F 97% 30.00 in 7.0 mi West 3.5 mph - N/A   Clear
8:35 AM 79.3 °F - 78.1 °F 96% 30.00 in 7.0 mi West 3.5 mph - N/A   Clear
8:55 AM 80.6 °F 88.1 °F 78.8 °F 94% 30.00 in 7.0 mi West 5.8 mph - N/A   Clear
9:15 AM 83.5 °F 95.1 °F 79.3 °F 87% 30.01 in 10.0 mi West 10.4 mph - N/A   Scattered Clouds
9:35 AM 83.7 °F 94.9 °F 78.6 °F 85% 30.01 in 10.0 mi West 12.7 mph 17.3 mph N/A   Overcast
10:15 AM 86.2 °F 97.4 °F 76.8 °F 74% 30.00 in 10.0 mi West 9.2 mph - N/A   Mostly Cloudy
10:35 AM 86.2 °F 97.4 °F 77.0 °F 74% 30.00 in 10.0 mi West 6.9 mph - N/A   Mostly Cloudy
10:55 AM 87.8 °F 98.6 °F 76.1 °F 68% 30.00 in 10.0 mi WSW 8.1 mph - N/A   Scattered Clouds
11:15 AM 88.3 °F 97.9 °F 74.8 °F 64% 30.00 in 10.0 mi West 12.7 mph - N/A   Scattered Clouds
11:35 AM 89.4 °F 97.3 °F 72.7 °F 58% 30.00 in 10.0 mi West 9.2 mph - N/A   Scattered Clouds
11:55 AM 88.2 °F 97.4 °F 74.7 °F 64% 30.01 in 10.0 mi West 5.8 mph - N/A   Scattered Clouds
12:15 PM 89.2 °F 96.9 °F 72.7 °F 58% 30.01 in 10.0 mi WSW 6.9 mph - N/A   Scattered Clouds
12:35 PM 88.9 °F 97.6 °F 73.9 °F 61% 30.00 in 10.0 mi NW 6.9 mph - N/A   Mostly Cloudy
12:55 PM 89.6 °F 99.3 °F 74.5 °F 61% 30.00 in 10.0 mi WNW 4.6 mph - N/A   Mostly Cloudy
1:15 PM 90.3 °F 99.9 °F 74.3 °F 59% 29.99 in 10.0 mi West 6.9 mph - N/A   Scattered Clouds
1:35 PM 90.1 °F 99.4 °F 74.1 °F 59% 29.99 in 10.0 mi Calm Calm - N/A   Scattered Clouds
1:55 PM 89.6 °F 98.2 °F 73.6 °F 59% 29.98 in 10.0 mi West 4.6 mph - N/A   Scattered Clouds
2:15 PM 89.8 °F 99.2 °F 74.3 °F 60% 29.97 in 10.0 mi West 5.8 mph - N/A   Mostly Cloudy
2:35 PM 91.4 °F 100.7 °F 73.8 °F 56% 29.96 in 10.0 mi SW 3.5 mph - N/A   Scattered Clouds
2:55 PM 91.4 °F 101.3 °F 74.1 °F 57% 29.95 in 10.0 mi WNW 5.8 mph - N/A   Scattered Clouds
3:15 PM 91.9 °F 101.3 °F 73.6 °F 55% 29.95 in 10.0 mi Calm Calm - N/A   Scattered Clouds
3:35 PM 91.9 °F 100.7 °F 73.2 °F 54% 29.95 in 10.0 mi West 8.1 mph - N/A   Clear
3:55 PM 91.4 °F 100.1 °F 73.2 °F 55% 29.95 in 10.0 mi Calm Calm - N/A   Scattered Clouds
4:15 PM 90.5 °F 99.2 °F 73.6 °F 57% 29.94 in 10.0 mi Calm Calm - N/A   Mostly Cloudy
4:35 PM 91.9 °F 101.3 °F 73.8 °F 55% 29.94 in 10.0 mi Calm Calm - N/A   Mostly Cloudy
4:55 PM 90.5 °F 99.7 °F 73.8 °F 58% 29.93 in 10.0 mi Calm Calm - N/A   Mostly Cloudy
5:15 PM 91.2 °F 100.2 °F 73.8 °F 56% 29.92 in 10.0 mi West 3.5 mph - N/A   Overcast
5:35 PM 91.8 °F 99.7 °F 72.7 °F 53% 29.92 in 10.0 mi SSW 3.5 mph - N/A   Scattered Clouds
6:15 PM 91.0 °F 99.3 °F 72.7 °F 55% 29.90 in 10.0 mi South 5.8 mph - N/A   Clear
6:35 PM 91.0 °F 98.7 °F 72.5 °F 54% 29.90 in 10.0 mi SSW 4.6 mph - N/A   Clear
6:55 PM 90.5 °F 98.1 °F 72.1 °F 55% 29.90 in 10.0 mi SSW 4.6 mph - N/A   Clear
7:15 PM 89.4 °F 97.3 °F 73.0 °F 58% 29.90 in 10.0 mi SSW 3.5 mph - N/A   Clear
7:35 PM 88.3 °F 95.9 °F 73.0 °F 60% 29.90 in 10.0 mi South 3.5 mph - N/A   Clear
7:55 PM 86.0 °F 99.3 °F 78.6 °F 79% 29.90 in 10.0 mi South 4.6 mph - N/A   Clear
8:15 PM 84.9 °F 97.5 °F 78.8 °F 82% 29.91 in 10.0 mi South 4.6 mph - N/A   Clear
8:35 PM 84.2 °F 95.7 °F 78.6 °F 83% 29.91 in 10.0 mi SSW 5.8 mph - N/A   Clear
8:55 PM 83.3 °F 94.2 °F 78.6 °F 86% 29.91 in 10.0 mi SSW 5.8 mph - N/A   Clear
9:35 PM 82.0 °F 90.5 °F 77.4 °F 86% 29.92 in 10.0 mi SSW 4.6 mph - N/A   Clear
9:55 PM 81.5 °F 89.5 °F 77.5 °F 88% 29.93 in 10.0 mi SSW 3.5 mph - N/A   Clear
10:15 PM 81.0 °F 88.4 °F 77.9 °F 90% 29.92 in 10.0 mi SSW 4.6 mph - N/A   Clear
10:35 PM 80.8 °F 88.0 °F 77.9 °F 91% 29.92 in 10.0 mi SSW 3.5 mph - N/A   Clear
10:55 PM 80.6 °F 87.5 °F 77.9 °F 91% 29.92 in 10.0 mi SSW 3.5 mph - N/A   Clear
11:15 PM 80.1 °F 86.3 °F 77.9 °F 93% 29.93 in 10.0 mi SW 3.5 mph - N/A   Clear
11:35 PM 80.1 °F 86.3 °F 77.9 °F 93% 29.92 in 10.0 mi Calm Calm - N/A   Clear